Estación de Casa Rosada

Ultimos registro cada 15 minutos 94
Estación Fecha / Hora Temperatura Humedad Lluvia Velocidad Dirección Radiación Presion
94 Casa Rosada 08-05-2026 23:15 10,8 56 0 0 181 0 1012,3
93 Casa Rosada 08-05-2026 23:00 11,5 55 0 0,4 181 0 1012,2
92 Casa Rosada 08-05-2026 22:45 12,2 55 0 0,4 181 0 1012
91 Casa Rosada 08-05-2026 22:30 13,7 51 0 0,9 207 0 1012,1
90 Casa Rosada 08-05-2026 22:15 14,5 50 0 0 352 0 1011,7
89 Casa Rosada 08-05-2026 22:00 14,8 49 0 0 352 0 1011,5
88 Casa Rosada 08-05-2026 21:45 15,2 48 0 0 360 0 1011,2
87 Casa Rosada 08-05-2026 21:30 15,4 45 0 0 1 0 1011,2
86 Casa Rosada 08-05-2026 21:15 17,3 42 0 0 2 0 1010,7
85 Casa Rosada 08-05-2026 21:00 17,9 40 0 0 29 0 1010,6
84 Casa Rosada 08-05-2026 20:45 18,4 39 0 2,2 31 0 1010,6
83 Casa Rosada 08-05-2026 20:30 19,7 36 0 0,4 345 0 1010,7
82 Casa Rosada 08-05-2026 20:15 19,9 35 0 0,4 334 0 1010,5
81 Casa Rosada 08-05-2026 20:00 21,2 32 0 3,1 33 0 1010,3
80 Casa Rosada 08-05-2026 19:45 21,4 32 0 2,2 32 0 1010
79 Casa Rosada 08-05-2026 19:30 21,4 31 0 0,9 356 0 1009,6
78 Casa Rosada 08-05-2026 19:15 21,1 32 0 2,2 24 0 1009,2
77 Casa Rosada 08-05-2026 19:00 20,8 32 0 2,7 47 0 1008,9
76 Casa Rosada 08-05-2026 18:45 20,9 32 0 0,9 2 0 1008,7
75 Casa Rosada 08-05-2026 18:30 21,7 31 0 1,3 17 0 1008,3
74 Casa Rosada 08-05-2026 18:15 21,6 31 0 0,9 36 0 1008,2
73 Casa Rosada 08-05-2026 18:00 22,1 29 0 0,4 333 0 1008,1
72 Casa Rosada 08-05-2026 17:45 22,6 29 0 0,4 356 12 1007,8
71 Casa Rosada 08-05-2026 17:30 23,5 27 0 0,9 2 18 1007,6
70 Casa Rosada 08-05-2026 17:15 24,6 24 0 0,9 337 21 1007,5
69 Casa Rosada 08-05-2026 17:00 25,9 23 0 1,8 302 114 1007,5
68 Casa Rosada 08-05-2026 16:45 26,4 22 0 0,9 360 181 1007,4
67 Casa Rosada 08-05-2026 16:30 27 20 0 2,2 338 244 1007,3
66 Casa Rosada 08-05-2026 16:15 27,3 19 0 0,9 333 265 1007
65 Casa Rosada 08-05-2026 16:00 27,5 17 0 4,5 344 311 1006,9
64 Casa Rosada 08-05-2026 15:45 27,9 16 0 0,9 354 366 1007
63 Casa Rosada 08-05-2026 15:30 28,2 15 0 3,1 8 422 1006,8
62 Casa Rosada 08-05-2026 15:15 28,4 14 0 2,2 267 457 1006,9
61 Casa Rosada 08-05-2026 15:00 28,6 14 0 1,8 6 485 1007,1
60 Casa Rosada 08-05-2026 14:45 28,3 14 0 2,2 338 515 1007
59 Casa Rosada 08-05-2026 14:30 28,5 13 0 3,1 320 548 1007,3
58 Casa Rosada 08-05-2026 14:15 28,8 13 0 2,7 356 575 1007,3
57 Casa Rosada 08-05-2026 14:00 28,7 14 0 2,2 327 594 1007,5
56 Casa Rosada 08-05-2026 13:45 28,5 14 0 3,1 41 615 1007,7
55 Casa Rosada 08-05-2026 13:30 28,6 15 0 3,6 353 603 1007,8
54 Casa Rosada 08-05-2026 13:15 28,6 15 0 1,8 358 642 1007,8
53 Casa Rosada 08-05-2026 13:00 28,1 14 0 1,3 333 647 1008,2
52 Casa Rosada 08-05-2026 12:45 27,7 15 0 0,9 314 652 1008,5
51 Casa Rosada 08-05-2026 12:30 27,6 16 0 1,3 347 647 1009
50 Casa Rosada 08-05-2026 12:15 27,1 15 0 1,8 339 647 1009,4
49 Casa Rosada 08-05-2026 12:00 26,3 14 0 1,8 337 640 1009,7
48 Casa Rosada 08-05-2026 11:45 25,9 15 0 1,3 318 628 1010,4
47 Casa Rosada 08-05-2026 11:30 24,6 15 0 0,9 348 612 1010,4
46 Casa Rosada 08-05-2026 11:15 24,1 18 0 1,8 25 592 1010,8
45 Casa Rosada 08-05-2026 11:00 22,9 20 0 0,9 59 573 1011,5
44 Casa Rosada 08-05-2026 10:45 22,3 24 0 0,9 358 548 1012,2
43 Casa Rosada 08-05-2026 10:30 20,3 27 0 0,4 66 522 1012,6
42 Casa Rosada 08-05-2026 10:15 18,2 34 0 1,8 167 508 1012,9
41 Casa Rosada 08-05-2026 10:00 16,8 36 0 1,3 177 197 1013,4
40 Casa Rosada 08-05-2026 09:45 15,2 41 0 0,9 148 265 1013,6
39 Casa Rosada 08-05-2026 09:30 13,9 42 0 0 118 183 1014
38 Casa Rosada 08-05-2026 09:15 12,3 47 0 0,4 163 295 1014,3
37 Casa Rosada 08-05-2026 09:00 9,1 57 0 0,4 167 269 1014
36 Casa Rosada 08-05-2026 08:45 7,7 60 0 0,4 108 53 1014,1
35 Casa Rosada 08-05-2026 08:30 7,6 60 0 0,4 181 23 1013,9
34 Casa Rosada 08-05-2026 08:15 7,3 62 0 0,4 182 19 1013,9
33 Casa Rosada 08-05-2026 08:00 7,4 61 0 0,4 167 16 1013,9
32 Casa Rosada 08-05-2026 07:45 7,5 62 0 1,8 190 16 1013,8
31 Casa Rosada 08-05-2026 07:30 7,4 62 0 0,4 158 11 1013,4
30 Casa Rosada 08-05-2026 07:15 7,1 64 0 0,9 167 0 1013,5
29 Casa Rosada 08-05-2026 07:00 7,3 63 0 0,4 181 0 1013,6
28 Casa Rosada 08-05-2026 06:45 7,1 65 0 0,9 188 0 1013,4
27 Casa Rosada 08-05-2026 06:30 7,2 64 0 0,4 193 0 1013,4
26 Casa Rosada 08-05-2026 06:15 8,6 60 0 0,9 181 0 1013,4
25 Casa Rosada 08-05-2026 06:00 7,7 64 0 0,9 150 0 1013,2
24 Casa Rosada 08-05-2026 05:45 7,8 64 0 0,4 177 0 1013,2
23 Casa Rosada 08-05-2026 05:30 7,7 65 0 0,4 204 0 1013
22 Casa Rosada 08-05-2026 05:15 7,7 64 0 0,9 144 0 1012,9
21 Casa Rosada 08-05-2026 05:00 7,8 64 0 0,4 150 0 1012,8
20 Casa Rosada 08-05-2026 04:45 8 64 0 0,4 167 0 1012,8
19 Casa Rosada 08-05-2026 04:30 8,1 64 0 0,9 181 0 1013
18 Casa Rosada 08-05-2026 04:15 7,9 65 0 1,3 177 0 1012,9
17 Casa Rosada 08-05-2026 04:00 8,1 64 0 1,3 167 0 1012,8
16 Casa Rosada 08-05-2026 03:45 8,4 63 0 0,9 190 0 1012,8
15 Casa Rosada 08-05-2026 03:30 8,9 62 0 0,9 184 0 1013
14 Casa Rosada 08-05-2026 03:15 8,8 62 0 0,4 167 0 1013,3
13 Casa Rosada 08-05-2026 03:00 9 62 0 0,9 177 0 1013,4
12 Casa Rosada 08-05-2026 02:45 8,9 62 0 0,4 163 0 1013,4
11 Casa Rosada 08-05-2026 02:30 9,4 61 0 0,4 181 0 1013,3
10 Casa Rosada 08-05-2026 02:15 9,9 60 0 1,8 205 0 1013,3
9 Casa Rosada 08-05-2026 02:00 9,3 62 0 0,9 167 0 1013,2
8 Casa Rosada 08-05-2026 01:45 9,4 61 0 0,4 162 0 1013,4
7 Casa Rosada 08-05-2026 01:30 9,8 61 0 1,3 177 0 1013,5
6 Casa Rosada 08-05-2026 01:15 10,2 60 0 0,9 205 0 1013,7
5 Casa Rosada 08-05-2026 01:00 10,5 59 0 0,4 150 0 1013,4
4 Casa Rosada 08-05-2026 00:45 10,3 60 0 0,4 123 0 1013,4
3 Casa Rosada 08-05-2026 00:30 10,4 59 0 0,4 167 0 1013,5
2 Casa Rosada 08-05-2026 00:15 11 58 0 0 159 0 1013,9
1 Casa Rosada 08-05-2026 00:00 11,3 58 0 1,3 167 0 1013,8